TimeEST,TemperatureF,Dew PointF,Humidity,Sea Level PressureIn,VisibilityMPH,Wind Direction,Wind SpeedMPH,Gust SpeedMPH,PrecipitationIn,Events,Conditions,WindDirDegrees,DateUTC
12:54 AM,10.0,-5.1,51,29.88,10.0,NW,5.8,-,N/A,,Clear,320,2013-02-05 05:54:00
1:54 AM,5.0,-5.1,63,29.91,10.0,Calm,Calm,-,N/A,,Clear,0,2013-02-05 06:54:00
2:54 AM,1.0,-5.1,75,29.91,10.0,Calm,Calm,-,N/A,,Clear,0,2013-02-05 07:54:00
3:54 AM,-0.9,-5.1,83,29.92,10.0,Calm,Calm,-,N/A,,Clear,0,2013-02-05 08:54:00
4:54 AM,1.0,-7.1,69,29.94,10.0,West,4.6,-,N/A,,Clear,270,2013-02-05 09:54:00
5:54 AM,3.0,-7.1,63,29.94,10.0,WNW,4.6,-,N/A,,Clear,290,2013-02-05 10:54:00
6:54 AM,1.9,-6.0,69,29.96,10.0,SW,5.8,-,N/A,,Clear,230,2013-02-05 11:54:00
7:54 AM,9.0,-6.0,51,29.99,10.0,WSW,5.8,-,N/A,,Clear,250,2013-02-05 12:54:00
8:54 AM,12.9,-6.0,43,30.01,10.0,WSW,4.6,-,0.00,,Clear,250,2013-02-05 13:54:00
9:54 AM,16.0,-5.1,39,30.01,10.0,SW,4.6,-,0.00,,Clear,230,2013-02-05 14:54:00
10:54 AM,18.0,-5.1,36,30.01,10.0,Variable,3.5,-,N/A,,Clear,0,2013-02-05 15:54:00
11:54 AM,19.9,-6.0,32,29.98,10.0,NNE,4.6,-,N/A,,Clear,20,2013-02-05 16:54:00
12:54 PM,21.9,-5.1,30,29.97,10.0,Calm,Calm,-,N/A,,Clear,0,2013-02-05 17:54:00
1:54 PM,25.0,-5.1,27,29.96,10.0,ENE,4.6,-,N/A,,Clear,60,2013-02-05 18:54:00
2:54 PM,26.1,-4.0,27,29.96,10.0,ENE,4.6,-,N/A,,Clear,70,2013-02-05 19:54:00
3:54 PM,25.0,-2.0,31,29.96,10.0,East,9.2,-,N/A,,Clear,100,2013-02-05 20:54:00
4:54 PM,21.0,-0.9,38,29.96,10.0,East,5.8,-,N/A,,Clear,100,2013-02-05 21:54:00
5:54 PM,17.1,3.0,54,29.97,10.0,Calm,Calm,-,N/A,,Clear,0,2013-02-05 22:54:00
6:54 PM,18.0,1.9,50,29.96,10.0,Calm,Calm,-,N/A,,Clear,0,2013-02-05 23:54:00
7:54 PM,18.0,3.9,54,29.97,10.0,Calm,Calm,-,N/A,,Clear,0,2013-02-06 00:54:00
8:54 PM,12.0,5.0,73,29.99,10.0,Calm,Calm,-,N/A,,Clear,0,2013-02-06 01:54:00
9:54 PM,10.0,5.0,80,29.99,10.0,Calm,Calm,-,N/A,,Clear,0,2013-02-06 02:54:00
10:54 PM,12.0,6.1,77,29.97,10.0,Calm,Calm,-,N/A,,Scattered Clouds,0,2013-02-06 03:54:00
11:54 PM,12.9,7.0,77,29.98,10.0,Calm,Calm,-,N/A,,Mostly Cloudy,0,2013-02-06 04:54:00